CHOLLIMA-1 R/B, 58401

Orbit data source: Space-Track

CHOLLIMA-1 R/B, 58401 is space debris in SSO originally from a launch on Tue, 21 Nov 2023 UTC launched from the Yunsong, Dprk (YUN). Debris objects in space refer to the collection of defunct objects orbiting the Earth. Examples of debris include non-operational satellites, rocket bodies, and fragments generated from explosions, collisions, or faulty payload assembly.

Loading next visibility...
Identifier
58401, 2023-179B
Orbit
SSO
Country
Flag of UnknownUnknown / NKOR
Related business
Manufacturer
Choson
Mission
Spacecraft
Bus & Motor
Unknown
Mass
~50 kg wet, ~50 kg dry
Launch date (UTC)
2023-11-21 (2 years ago)
Launch vehicle
Unknown
Launch site
Yunsong, Dprk (YUN)
Object type
Payload
Rocket body
Debris
Shape & HBR
Cyl, 4.0 m
Radar Cross Section
17.530 m², Large (>1 m²)

Expand to show TLE details & history
Last TLE update: 12 hours ago

TLE from 12 hours ago
0 CHOLLIMA-1 R/B
1 58401U 23179B   25341.96729991  .00028373  00000-0  47584-3 0  9991
2 58401  97.3263 238.9634 0020512 135.1850 225.1064 15.51545227114742
Epoch: 2025-12-07T23:12Z
TLE epoch observation values (Epoch: 2025-12-07T23:12:54.712Z)
Latitude
0.00004°
Longitude
173.76234°
Altitude
425.196 km
Speed
7.651 km/s
True Right ascension
15h 55m 51s
True Declination
0° 00' 00"
Sunlit
Object was in daylight at epoch
Visualization orbit readout
Latitude
Unknown
Longitude
Unknown
Altitude
Unknown
Speed
Unknown
Apparent Right ascension
Unknown
Apparent Declination
Unknown
Sunlit
N/A
Visualization observer readout
Local Sidereal Time
09:12:09
Azimuth
Unknown
Elevation
Unknown
Doppler factor
Unknown
Orbital elements
Apogee altitude
423.056 km
Perigee altitude
395.212 km
Semi-major axis
6,787.271 km
Eccentricity
0.00205
Inclination
97.3263°
RAAN
238.9634°
Arg. of periapsis
135.185°
True anomaly
224.94019°
Mean anomaly
225.1064°
Eccentric anomaly
225.02326°
Mean motion
3.88151 °/min
Orbital period
92.75 mins
BSTAR
0.00047584
Loading maneuver chart data...
Computing Atmospheric mass density...
Loading historical data...
Loading historical data...
Loading historical data...
Loading historical data...
Loading historical data...
Loading historical data...
Loading historical data...
Other satellites on launch #179 in the year 2023 (2023-11-21 UTC)

Documentation

Showing up to 5 results
|